Location: Newark
(44.3248°N, 23.7839°E)
Time: 17:17:36
(UTC+00:00)

NOAA 19 - Pass Details

Date: 03 May 2024
Orbit: 839 x 859 km, 99.0° (Epoch: 29 May)

Event Time Altitude Azimuth Distance (km) Brightness Sun altitude
Exits shadow 20:06:32 10° 214° (SW) 2,452 7.4 -22.3°
Maximum altitude 20:10:50 24° 267° (W) 1,693 7.1 -22.7°
Drops below altitude 10° 20:15:09 10° 319° (NW) 2,463 8.7 -23.1°
Sets 20:18:00 0° 334° (NNW) 3,403 9.8 -23.4°
